Showing default

FLOCK 4G 3, 62639

Orbit data source: Space-Track

FLOCK 4G 3, 62639 is a payload satellite owned by Planet (US) in SSO that was launched on Tue, 14 Jan 2025 UTC via an FALCON 9 launch vehicle from the Air Force Western Test Range (AFWTR). Payload-class satellites include a variety of spacecraft equipped with specific instruments for various scientific and technological missions. These include communications satellites like Starlink; space stations such as the ISS; scientific satellites like the Hubble; Earth observation satellites from companies like Planet Labs, Umbra, and HawkEye 360; GPS; miniature CubeSats for education and research; and military/defense satellites.

Loading next visibility...
Identifier
62639, 2025-009AG
Orbit
SSO
Last TLE update
12 hours ago
Origin
Manufacturer
Planet
Mission
Operational Commercial Imaging
Bus & Motor
CUBESAT 3U, Unknown motor
Mass
5.7 kg wet, 5.7 kg dry
Launch date (UTC)
2025-01-14 (6 months ago)
Launch vehicle
FALCON 9
Launch site
Air Force Western Test Range (AFWTR)
Object type
Payload
Rocket body
Debris
Shape & HBR
Box + 2 Pan, 0.3 m
Radar Cross Section
0.035 m², Medium (>0.1 m² and < 1m²)

Expand to show TLE details & history

TLE from 12 hours ago
0 FLOCK 4G 3
1 62639U 25009AG  25182.76907766  .00005995  00000-0  27291-3 0  9990
2 62639  97.4324 262.9654 0004633  96.8166 263.3597 15.21057965 25499
Epoch: 2025-07-01T18:27Z
TLE epoch observation values (Epoch: 2025-07-01T18:27:28.309Z)
Latitude
-0.00004°
Longitude
66.03767°
Altitude
506.109 km
Speed
7.611 km/s
True Right ascension
17h 31m 51s
True Declination
0° 00' 00"
Sunlit
Object was in full shadow at epoch
Visualization orbit readout
Latitude
-14.22686°
Longitude
-115.35794°
Altitude
509.141 km
Speed
7.608 km/s
Apparent Right ascension
05h 41m 57s
Apparent Declination
-26° 30' 02"
Sunlit
Object is in daylight
Visualization observer readout
Local Sidereal Time
18:03:20
Azimuth
19.965° NNE
Elevation
-75.866°
Doppler factor
1
Orbital elements
Apogee altitude
502.8 km
Perigee altitude
496.427 km
Semi-major axis
6,877.751 km
Eccentricity
0.00046
Inclination
97.4324°
RAAN
262.9654°
Arg. of periapsis
96.8166°
True anomaly
Unknown
Mean anomaly
263.3597°
Eccentric anomaly
Unknown
Mean motion
3.80517 °/min
Orbital period
94.61 mins
BSTAR
0.00027291
Loading maneuver chart data...
Loading SW <> Apogee altitude chart data...
Loading historical data...
Loading historical data...
Loading historical data...
Loading historical data...
Loading historical data...
Loading historical data...
Loading historical data...

FLOCK 4G 3 Visibility forecast

Observer location: undefined°, undefined°

Span
Click to sort rows by Start time (UTC) header in descending order
Start Az.
Max El. time (UTC)
Max El. Az.
Max El.
End time (UTC)
End Az.
5 mins2025-07-02 18:42:37.064Z344.891° N2025-07-02 18:44:37.064Z293.889° NW31.028°2025-07-02 18:47:37.064Z222.535° SW
6 mins2025-07-03 05:19:37.064Z160.977° S2025-07-03 05:22:37.064Z15.848° NNE42.245°2025-07-03 05:25:37.064Z351.251° N
|